"Period start","avg(HW err(1)/warn(2) (#))","avg(Visibility (m))","avg(Weather code (#))","avg(Precip intensity (mm/h))","min(HW err(1)/warn(2) (#))","max(HW err(1)/warn(2) (#))","std(HW err(1)/warn(2) (#))","med(HW err(1)/warn(2) (#))","min(Visibility (m))","max(Visibility (m))","std(Visibility (m))","med(Visibility (m))","min(Weather code (#))","max(Weather code (#))","std(Weather code (#))","med(Weather code (#))","min(Precip intensity (mm/h))","max(Precip intensity (mm/h))","std(Precip intensity (mm/h))","med(Precip intensity (mm/h))"
2017-09-13 00:00:00,2,5018,10,0.00,2,2,0,2,4316,5652,374,5062,10,10,0,10,0.00,0.00,0.00,0.00
2017-09-13 00:10:00,2,5747,10,0.00,2,2,0,2,3990,7093,844,5894,10,10,0,10,0.00,0.00,0.00,0.00
2017-09-13 00:20:00,2,5052,10,0.00,2,2,0,2,4324,6952,765,4759,10,10,0,10,0.00,0.00,0.00,0.00
2017-09-13 00:30:00,2,6023,10,0.00,2,2,0,2,4439,8662,1163,5914,10,10,0,10,0.00,0.00,0.00,0.00
2017-09-13 00:40:00,2,7863,10,0.00,2,2,0,2,6852,9146,713,7876,10,10,0,10,0.00,0.00,0.00,0.00
2017-09-13 00:50:00,2,8159,10,0.00,2,2,0,2,6848,9343,780,8244,10,10,0,10,0.00,0.00,0.00,0.00
2017-09-13 01:00:00,2,7191,10,0.00,2,2,0,2,5846,8774,965,6877,10,10,0,10,0.00,0.00,0.00,0.00
2017-09-13 01:10:00,2,6701,10,0.00,2,2,0,2,4260,9100,1614,6496,10,10,0,10,0.00,0.00,0.00,0.00
2017-09-13 01:20:00,2,6624,10,0.00,2,2,0,2,4633,8132,1366,7298,10,10,0,10,0.00,0.00,0.00,0.00
2017-09-13 01:30:00,2,6310,10,0.00,2,2,0,2,4777,7552,914,6553,10,10,0,10,0.00,0.00,0.00,0.00
2017-09-13 01:40:00,2,8980,10,0.00,2,2,0,2,6484,11151,1336,9129,10,10,0,10,0.00,0.00,0.00,0.00
2017-09-13 01:50:00,2,7248,10,0.00,2,2,0,2,5064,9594,1641,7243,10,10,0,10,0.00,0.00,0.00,0.00
2017-09-13 02:00:00,2,6810,10,0.00,2,2,0,2,4022,8343,1450,7037,10,10,0,10,0.00,0.00,0.00,0.00
2017-09-13 02:10:00,2,5682,10,0.00,0,2,1,2,4571,6463,665,5960,10,10,0,10,0.00,0.00,0.00,0.00
2017-09-13 02:20:00,0,5764,10,0.00,0,0,0,0,4386,7270,736,5772,10,10,0,10,0.00,0.00,0.00,0.00
2017-09-13 02:30:00,0,5330,10,0.00,0,0,0,0,4235,6260,745,5609,10,10,0,10,0.00,0.00,0.00,0.00
2017-09-13 02:40:00,0,5178,10,0.00,0,0,0,0,3303,6339,858,5294,10,10,0,10,0.00,0.00,0.00,0.00
2017-09-13 02:50:00,0,4642,10,0.00,0,0,0,0,3253,5885,843,4822,10,10,0,10,0.00,0.00,0.00,0.00
2017-09-13 03:00:00,0,4679,20,0.19,0,0,0,0,3328,5662,723,4894,10,51,16,10,0.00,1.30,0.39,0.00
2017-09-13 03:10:00,0,6498,14,0.01,0,0,0,0,4899,8478,1121,6194,10,51,12,10,0.00,0.05,0.02,0.00
2017-09-13 03:20:00,0,5928,10,0.00,0,0,0,0,3947,8925,1548,5796,10,10,0,10,0.00,0.00,0.00,0.00
2017-09-13 03:30:00,0,7033,10,0.00,0,0,0,0,3764,10017,1840,6662,10,10,0,10,0.00,0.00,0.00,0.00
2017-09-13 03:40:00,0,13007,10,0.00,0,0,0,0,6460,37519,9385,8745,10,10,0,10,0.00,0.00,0.00,0.00
2017-09-13 03:50:00,0,23421,3,0.00,0,0,0,0,4174,46738,18060,14454,0,10,5,0,0.00,0.00,0.00,0.00
2017-09-13 04:00:00,0,6186,9,0.00,0,0,0,0,4168,7651,1091,6290,0,10,3,10,0.00,0.00,0.00,0.00
2017-09-13 04:10:00,0,7571,10,0.00,0,0,0,0,6358,9771,1121,7048,10,10,0,10,0.00,0.00,0.00,0.00
2017-09-13 04:20:00,0,4704,10,0.00,0,0,0,0,3002,8052,1452,4449,10,10,0,10,0.00,0.00,0.00,0.00
2017-09-13 04:30:00,1,3798,10,0.00,0,2,1,2,2272,6847,1489,3319,10,10,0,10,0.00,0.00,0.00,0.00
2017-09-13 04:40:00,0,2711,50,4.00,0,0,0,0,2062,3512,443,2903,40,53,5,52,0.15,8.50,3.00,3.22
2017-09-13 04:50:00,0,3223,48,1.10,0,0,0,0,2178,3859,487,3358,10,52,13,52,0.00,4.40,1.24,0.85
2017-09-13 05:00:00,2,4721,30,0.37,0,2,1,2,2291,8888,2269,3729,10,61,25,10,0.00,1.35,0.52,0.00
2017-09-13 05:10:00,2,10798,10,0.00,2,2,0,2,2569,27836,7985,8286,10,10,0,10,0.00,0.00,0.00,0.00
2017-09-13 05:20:00,2,16472,6,0.00,2,2,0,2,8918,28313,6785,15334,0,10,5,10,0.00,0.00,0.00,0.00
2017-09-13 05:30:00,2,30786,0,0.00,2,2,0,2,8034,48645,15756,36112,0,0,0,0,0.00,0.00,0.00,0.00
2017-09-13 05:40:00,2,3301,12,0.81,2,2,0,2,1232,7247,2035,2168,0,40,15,10,0.00,7.00,2.09,0.00
2017-09-13 05:50:00,2,2877,42,0.77,2,2,0,2,2021,3732,525,2842,0,61,23,52,0.00,4.40,1.27,0.20
2017-09-13 06:00:00,2,2024,15,0.13,2,2,0,2,1517,3337,539,1838,10,61,15,10,0.00,1.30,0.39,0.00
2017-09-13 06:10:00,2,4549,50,1.42,2,2,0,2,2031,12194,3200,2944,10,61,14,52,0.00,8.35,2.48,0.45
2017-09-13 06:20:00,2,11004,10,0.00,2,2,0,2,3395,23251,7340,8037,10,10,0,10,0.00,0.00,0.00,0.00
2017-09-13 06:30:00,2,10610,10,0.00,2,2,0,2,3997,22635,5979,8082,10,10,0,10,0.00,0.00,0.00,0.00
2017-09-13 06:40:00,2,7651,19,0.46,2,2,0,2,2028,25328,6680,4984,10,40,14,10,0.00,3.75,1.12,0.00
2017-09-13 06:50:00,2,6416,10,0.00,2,2,0,2,2883,10454,2733,6052,10,10,0,10,0.00,0.00,0.00,0.00
2017-09-13 07:00:00,2,2894,27,0.40,2,2,0,2,1516,5416,1061,2664,10,52,18,25,0.00,1.85,0.58,0.07
2017-09-13 07:10:00,2,4968,22,0.03,2,2,0,2,2165,7499,1867,4512,10,52,19,10,0.00,0.20,0.06,0.00
2017-09-13 07:20:00,2,2630,10,0.00,2,2,0,2,2190,3226,370,2434,10,10,0,10,0.00,0.00,0.00,0.00
2017-09-13 07:30:00,2,3561,10,0.00,2,2,0,2,2686,5181,704,3379,10,10,0,10,0.00,0.00,0.00,0.00
2017-09-13 07:40:00,2,6937,10,0.00,2,2,0,2,3926,10959,2266,7142,10,10,0,10,0.00,0.00,0.00,0.00
2017-09-13 07:50:00,2,13575,10,0.00,2,2,0,2,8731,25584,4900,12035,10,10,0,10,0.00,0.00,0.00,0.00
2017-09-13 08:00:00,2,17838,0,0.00,2,2,0,2,10259,40264,9468,12959,0,0,0,0,0.00,0.00,0.00,0.00
2017-09-13 08:10:00,2,11414,0,0.00,2,2,0,2,7202,15391,2152,11480,0,0,0,0,0.00,0.00,0.00,0.00
2017-09-13 08:20:00,2,45164,0,0.00,2,2,0,2,20056,50000,9260,50000,0,0,0,0,0.00,0.00,0.00,0.00
2017-09-13 08:30:00,2,50000,0,0.00,2,2,0,2,50000,50000,0,50000,0,0,0,0,0.00,0.00,0.00,0.00
2017-09-13 08:40:00,2,50000,0,0.00,2,2,0,2,50000,50000,0,50000,0,0,0,0,0.00,0.00,0.00,0.00
2017-09-13 08:50:00,2,50000,0,0.00,2,2,0,2,50000,50000,0,50000,0,0,0,0,0.00,0.00,0.00,0.00
2017-09-13 09:00:00,2,50000,0,0.00,2,2,0,2,50000,50000,0,50000,0,0,0,0,0.00,0.00,0.00,0.00
2017-09-13 09:10:00,2,50000,0,0.00,2,2,0,2,50000,50000,0,50000,0,0,0,0,0.00,0.00,0.00,0.00
2017-09-13 09:20:00,2,50000,0,0.00,2,2,0,2,50000,50000,0,50000,0,0,0,0,0.00,0.00,0.00,0.00
2017-09-13 09:30:00,2,50000,0,0.00,2,2,0,2,50000,50000,0,50000,0,0,0,0,0.00,0.00,0.00,0.00
2017-09-13 09:40:00,2,50000,0,0.00,2,2,0,2,50000,50000,0,50000,0,0,0,0,0.00,0.00,0.00,0.00
2017-09-13 09:50:00,2,50000,0,0.00,2,2,0,2,50000,50000,0,50000,0,0,0,0,0.00,0.00,0.00,0.00
2017-09-13 10:00:00,2,50000,0,0.00,2,2,0,2,50000,50000,0,50000,0,0,0,0,0.00,0.00,0.00,0.00
2017-09-13 10:10:00,2,50000,0,0.00,2,2,0,2,50000,50000,0,50000,0,0,0,0,0.00,0.00,0.00,0.00
2017-09-13 10:20:00,2,50000,0,0.00,2,2,0,2,50000,50000,0,50000,0,0,0,0,0.00,0.00,0.00,0.00
2017-09-13 10:30:00,2,50000,0,0.00,2,2,0,2,50000,50000,0,50000,0,0,0,0,0.00,0.00,0.00,0.00
2017-09-13 10:40:00,2,28008,0,0.00,2,2,0,2,3950,50000,19092,22695,0,0,0,0,0.00,0.00,0.00,0.00
2017-09-13 10:50:00,2,17777,6,0.00,2,2,0,2,5525,41986,11533,15312,0,10,5,10,0.00,0.00,0.00,0.00
2017-09-13 11:00:00,2,47039,1,0.00,2,2,0,2,30697,50000,6254,50000,0,10,3,0,0.00,0.00,0.00,0.00
2017-09-13 11:10:00,2,50000,0,0.00,2,2,0,2,50000,50000,0,50000,0,0,0,0,0.00,0.00,0.00,0.00
2017-09-13 11:20:00,2,50000,0,0.00,2,2,0,2,50000,50000,0,50000,0,0,0,0,0.00,0.00,0.00,0.00
2017-09-13 11:30:00,2,50000,0,0.00,2,2,0,2,50000,50000,0,50000,0,0,0,0,0.00,0.00,0.00,0.00
2017-09-13 11:40:00,1,50000,0,0.00,0,2,1,2,50000,50000,0,50000,0,0,0,0,0.00,0.00,0.00,0.00
2017-09-13 11:50:00,0,50000,0,0.00,0,0,0,0,50000,50000,0,50000,0,0,0,0,0.00,0.00,0.00,0.00
2017-09-13 12:00:00,0,40831,0,0.00,0,0,0,0,14696,50000,14058,50000,0,0,0,0,0.00,0.00,0.00,0.00
2017-09-13 12:10:00,0,29393,0,0.00,0,0,0,0,12034,49004,13396,30147,0,0,0,0,0.00,0.00,0.00,0.00
2017-09-13 12:20:00,0,50000,0,0.00,0,0,0,0,50000,50000,0,50000,0,0,0,0,0.00,0.00,0.00,0.00
2017-09-13 12:30:00,0,49928,0,0.00,0,0,0,0,49275,50000,218,50000,0,0,0,0,0.00,0.00,0.00,0.00
2017-09-13 12:40:00,0,20023,2,0.00,0,0,0,0,1587,50000,20539,10030,0,10,4,0,0.00,0.00,0.00,0.00
2017-09-13 12:50:00,0,2432,24,0.67,0,0,0,0,1095,4285,948,2142,10,52,18,10,0.00,3.40,1.17,0.00
2017-09-13 13:00:00,0,4033,10,0.00,0,0,0,0,1683,8585,2008,3630,10,10,0,10,0.00,0.00,0.00,0.00
2017-09-13 13:10:00,0,8636,9,0.00,0,0,0,0,1657,25169,6909,6111,0,10,3,10,0.00,0.00,0.00,0.00
2017-09-13 13:20:00,0,19155,6,0.00,0,0,0,0,1486,45691,16664,12781,0,10,5,10,0.00,0.00,0.00,0.00
2017-09-13 13:30:00,0,2460,10,0.00,0,0,0,0,1243,3756,940,2518,10,10,0,10,0.00,0.00,0.00,0.00
2017-09-13 13:40:00,1,3244,10,0.00,0,2,1,2,1567,5376,1422,2793,10,10,0,10,0.00,0.00,0.00,0.00
2017-09-13 13:50:00,2,4555,10,0.00,2,2,0,2,2770,7443,1907,3552,10,10,0,10,0.00,0.00,0.00,0.00
2017-09-13 14:00:00,2,2402,10,0.00,2,2,0,2,1064,4903,1118,1946,10,10,0,10,0.00,0.00,0.00,0.00
